Location: Newark
(44.8699°N, 13.8438°E)
Time: 01:12:57
(UTC+00:00)

Envisat - Pass Details

Date: 17 September 2019
Orbit: 764 x 766 km, 98.1° (Epoch: 13 October)

Event Time Altitude Azimuth Distance (km) Brightness Sun altitude
Rises 17:53:42 0° 189° (S) 3,219 6.2 -8.1°
Reaches altitude 10° 17:56:11 10° 198° (SSW) 2,297 5.6 -8.5°
Maximum altitude 18:00:47 35° 264° (W) 1,224 4.8 -9.3°
Drops below altitude 10° 18:05:26 10° 330° (NNW) 2,313 6.2 -10.1°
Sets 18:07:57 0° 339° (NNW) 3,243 6.8 -10.5°
